Regional Weather Roundup
Issued by NWS

Home | Current Version | Previous Version | Graphics & Text | Print | Product List | Glossary On
Versions: 1 2 3 4 5 6 7 8 9 10 11 12 13 14 15 16 17 18 19 20 21 22 23 24 25 26 27 28 29 30 31 32 33 34 35 36 37 38 39 40 41 42 43 44 45 46 47 48 49 50
541
ASUS43 KMKX 190920
RWRWI

WISCONSIN REGIONAL WEATHER ROUNDUP
NATIONAL WEATHER SERVICE MILWAUKEE/SULLIVAN WI
300 AM CST MON FEB 19 2018

NOTE: "FAIR" INDICATES FEW OR NO CLOUDS BELOW 12,000 FEET WITH NO
SIGNIFICANT WEATHER AND/OR OBSTRUCTIONS TO VISIBILITY.

WIZ001-002-006>008-014>016-023>028-191000-
NORTHWEST WISCONSIN

CITY           SKY/WX    TMP DP  RH WIND       PRES   REMARKS
SUPERIOR ARPT  CLOUDY    16  11  79 N13G18    29.99R WCI   3
ASHLAND        FRZ RAIN  20  18  92 N16       29.94R FOG     WCI   6
HAYWARD        CLOUDY    21  18  88 N16G23    29.85R WCI   7
SIREN          LGT SNOW  23  20  87 NE14G21   29.87R WCI  11
CUMBERLAND     CLOUDY    27  21  80 N13G20    29.79R WCI  16
RICE LAKE      CLOUDY    28  24  86 N14G23    29.79R WCI  17
CHETEK         CLOUDY    29  25  84 NW3       29.77S
LADYSMITH      CLOUDY    32  25  77 N13       29.79R WCI  22
EAU CLAIRE     FAIR      26  23  88 N3        29.75R
MENOMONIE      FAIR      28  25  89 N7        29.76R WCI  21
NEW RICHMOND   MOCLDY    25  20  82 N14       29.80R WCI  14
OSCEOLA        CLOUDY    27  22  81 N10G18    29.84S WCI  17
$$

WIZ003>005-009-010-017-018-191000-
NORTH CENTRAL WISCONSIN

CITY           SKY/WX    TMP DP  RH WIND       PRES   REMARKS
MANITOWISH WTR CLOUDY    24  24  99 N9G16     29.79R WCI  15
ARBOR VITAE    CLOUDY    32  28  84 N6        29.76R WCI  26
WOODRUFF       CLOUDY    32  28  84 N6        29.76R WCI  26
RHINELANDER    FAIR      27  24  89 CALM      29.76S
EAGLE RIVER    CLOUDY    29  24  81 CALM      29.77R
LAND O LAKES   CLOUDY    28  25  88 N13       29.78S WCI  17
PHILLIPS       MOCLDY    28  25  87 N6        29.77R WCI  21
TOMAHAWK       FAIR      25  22  89 CALM      29.77R
MEDFORD        FAIR      23  21  93 E3        29.74S
MERRILL        FAIR      26  25  96 CALM      29.76S
$$

WIZ029-030-035-036-043>047-191000-
CENTRAL WISCONSIN

CITY           SKY/WX    TMP DP  RH WIND       PRES   REMARKS
WAUSAU         FAIR      24  23  96 CALM      29.75S FOG
MOSINEE        FAIR      28  27  93 E5        29.77S WCI  23
MARSHFIELD     FAIR      26  24  92 E3        29.74S
STEVENS POINT  FAIR      22  22 100 CALM      29.78R
WAUPACA        FAIR      30  28  90 CALM      29.79S FOG
WAUTOMA        FAIR      25  22  88 CALM      29.79S
WISC RAPIDS    MOCLDY    25  22  88 S3        29.77S
CAMP DOUGLAS   CLOUDY    37  30  74 S5        29.75S WCI  34
$$

WIZ011>013-019>022-031-037>040-048>050-191000-
NORTHEAST WISCONSIN

CITY           SKY/WX    TMP DP  RH WIND       PRES   REMARKS
ANTIGO         FAIR      19  18  98 SE5       29.76F FOG     WCI  12
SHAWANO        FAIR      27  25  90 CALM      29.81R
OCONTO         MOCLDY    29  27  92 CALM      29.81F
STURGEON BAY   CLOUDY    35  31  85 S8        29.83F WCI  29
GREEN BAY      CLOUDY    33  28  81 S3        29.81S
MANITOWOC      CLOUDY    34  32  92 SE5       29.83F WCI  30
APPLETON       CLOUDY    32  27  80 S8        29.78S WCI  25
CLINTONVILLE   FAIR      27  25  91 CALM      29.80S
OSHKOSH        CLOUDY    37  31  78 S10       29.80S WCI  30
$$

WIZ032>034-041-042-053>061-191000-
SOUTHWEST WISCONSIN

CITY           SKY/WX    TMP DP  RH WIND       PRES   REMARKS
LA CROSSE      CLOUDY    38  30  73 S6        29.74S WCI  33
SPARTA         CLOUDY    38  31  73 CALM      29.76F
VIROQUA        CLOUDY    36  32  85 S7        29.74F WCI  31
BOSCOBEL       CLOUDY    34  29  82 CALM      29.76F
PRAIRIE DU CHI CLOUDY    39  28  64 E5        29.75F
PLATTEVILLE    MOCLDY    37  33  88 SE7       29.77F WCI  31
$$

WIZ056-057-062-063-064-067-068-191000-
SOUTH CENTRAL WISCONSIN

CITY           SKY/WX    TMP DP  RH WIND       PRES   REMARKS
REEDSBURG      CLOUDY    37  31  79 CALM      29.76F
BARABOO/DELLS  CLOUDY    38  30  71 SW3       29.76F
LONE ROCK      NOT AVBL
MINERAL POINT  CLOUDY    36  36 100 SE6       29.76F WCI  31
MADISON        CLOUDY    36  31  82 S3        29.80F
MIDDLETON      CLOUDY    38  32  81 SE3       29.79F
WATERTOWN      CLOUDY    36  33  88 S3        29.81S
MONROE         CLOUDY    36  32  87 S12       29.79S WCI  27
JANESVILLE     CLOUDY    37  32  81 S5        29.81S WCI  34
$$

WIZ051-052-058>065-066-070>072-191000-
SOUTHEAST WISCONSIN

CITY           SKY/WX    TMP DP  RH WIND       PRES   REMARKS
MILWAUKEE      CLOUDY    37  31  78 SE3       29.83F
WAUKESHA       CLOUDY    36  30  80 S5        29.83S WCI  32
MILWAUKEE/TIMM CLOUDY    36  28  75 CALM      29.83F
RACINE         CLOUDY    37  32  82 S3        29.85F
BURLINGTON     CLOUDY    38  32  79 S12G17    29.82F WCI  30
KENOSHA        CLOUDY    40  32  73 SW10      29.83F WCI  33
FOND DU LAC    CLOUDY    39  30  70 S13       29.80S WCI  31
SHEBOYGAN      CLOUDY    34  32  92 S5        29.82S WCI  30
WEST BEND      CLOUDY    34  32  93 CALM      29.82F
JUNEAU         CLOUDY    35  31  85 SE5       29.82S WCI  31
$$

LSZ147-162-191000-
LAKE SUPERIOR

STATION/POSITION TIME  TEMP    WIND        PRES    WAVE
                       AIR SEA DIR/SP/G            HT/PER
                 (UTC) (F)     (DEG/KT/KT) (MB)    (FT/S)
DEVILS ISLAND    0900   19      40/ 20/ 22 1016.2R
SAXON HARBOR     0840   22      50/ 17/ 21 1012.5R
$$

LMZ867-665-643>646-191000-
LAKE MICHIGAN

STATION/POSITION TIME  TEMP    WIND        PRES    WAVE
                       AIR SEA DIR/SP/G            HT/PER
                 (UTC) (F)     (DEG/KT/KT) (MB)    (FT/S)
NORTHPORT PIER   0840   36                 1010.8R
KEWAUNEE LAKESHO 0854   35     170/  9/ 10 1009.6F
SHEBOYGAN LAKESH 0900   35     180/ 12/ 13 1010.4F
PORT WASHINGTON  0840   34     190/  4/  6 1011.5S
MILWAUKEE LAKESH 0900   34     160/  6/  7   N/A
KENOSHA   LAKESH 0900   41     210/  4/  9 1010.8
$$

TC  - TEMPERATURE IN CELSIUS
VSB - VISIBILITY IN STATUTE MILES
WCI - WIND CHILL INDEX
HX  - HEAT INDEX





USA.gov is the U.S. government's official web portal to all federal, state and local government web resources and services.